TimeCST,TemperatureF,Dew PointF,Humidity,Sea Level PressureIn,VisibilityMPH,Wind Direction,Wind SpeedMPH,Gust SpeedMPH,PrecipitationIn,Events,Conditions,WindDirDegrees,DateUTC
12:30 AM,55.4,53.6,94,30.04,2.5,Calm,Calm,-,N/A,,Clear,0,2013-02-06 06:30:00
12:36 AM,57.2,55.4,94,30.04,1.8,Calm,Calm,-,N/A,,Partly Cloudy,0,2013-02-06 06:36:00
12:40 AM,57.2,55.4,94,30.04,0.8,Calm,Calm,-,N/A,,Mist,0,2013-02-06 06:40:00
12:48 AM,57.2,55.4,94,30.04,1.2,NE,4.6,-,N/A,,Partly Cloudy,50,2013-02-06 06:48:00
12:53 AM,57.2,55.4,94,30.03,1.8,NE,3.5,-,N/A,,Partly Cloudy,50,2013-02-06 06:53:00
1:00 AM,55.4,55.4,100,30.04,2.5,NE,3.5,-,N/A,,Partly Cloudy,50,2013-02-06 07:00:00
1:16 AM,55.4,53.6,94,30.04,4.0,Calm,Calm,-,N/A,,Clear,0,2013-02-06 07:16:00
1:24 AM,55.4,53.6,94,30.04,1.2,NE,4.6,-,N/A,,Clear,40,2013-02-06 07:24:00
1:32 AM,55.4,55.4,100,30.04,0.8,NE,3.5,-,N/A,,Clear,40,2013-02-06 07:32:00
1:40 AM,55.4,55.4,100,30.03,1.5,NE,4.6,-,N/A,,Clear,40,2013-02-06 07:40:00
1:53 AM,55.0,54.0,96,30.04,0.8,NNE,4.6,-,N/A,,Clear,30,2013-02-06 07:53:00
1:59 AM,55.4,53.6,94,30.04,2.5,NE,3.5,-,N/A,,Clear,40,2013-02-06 07:59:00
2:09 AM,55.4,53.6,94,30.04,1.8,Calm,Calm,-,N/A,,Partly Cloudy,0,2013-02-06 08:09:00
2:20 AM,55.4,55.4,100,30.04,0.5,Calm,Calm,-,N/A,Fog,Fog,0,2013-02-06 08:20:00
2:30 AM,55.4,53.6,94,30.04,0.5,Calm,Calm,-,N/A,Fog,Fog,0,2013-02-06 08:30:00
2:42 AM,55.4,53.6,94,30.03,0.5,Calm,Calm,-,N/A,Fog,Fog,0,2013-02-06 08:42:00
2:53 AM,55.0,54.0,96,30.04,0.5,Calm,Calm,-,N/A,Fog,Fog,0,2013-02-06 08:53:00
3:04 AM,53.6,53.6,100,30.04,0.2,Calm,Calm,-,N/A,Fog,Fog,0,2013-02-06 09:04:00
3:47 AM,53.6,51.8,94,30.05,1.0,Calm,Calm,-,N/A,,Mist,0,2013-02-06 09:47:00
3:53 AM,53.1,52.0,96,30.05,2.0,Calm,Calm,-,N/A,,Overcast,0,2013-02-06 09:53:00
3:55 AM,53.6,51.8,94,30.05,0.8,Calm,Calm,-,N/A,,Mist,0,2013-02-06 09:55:00
4:04 AM,53.6,53.6,100,30.05,0.2,NE,3.5,-,N/A,Fog,Fog,40,2013-02-06 10:04:00
4:26 AM,53.6,53.6,100,30.04,0.5,NE,5.8,-,N/A,Fog,Fog,40,2013-02-06 10:26:00
4:53 AM,55.0,54.0,96,30.04,0.5,Calm,Calm,-,N/A,Fog,Fog,0,2013-02-06 10:53:00
5:10 AM,53.6,51.8,94,30.04,0.2,Calm,Calm,-,N/A,Fog,Fog,0,2013-02-06 11:10:00
5:15 AM,53.6,51.8,94,30.04,0.5,NNE,3.5,-,N/A,Fog,Fog,30,2013-02-06 11:15:00
5:23 AM,53.6,51.8,94,30.05,0.5,Calm,Calm,-,N/A,Fog,Fog,0,2013-02-06 11:23:00
5:32 AM,53.6,53.6,100,30.06,0.2,Calm,Calm,-,N/A,Fog,Fog,0,2013-02-06 11:32:00
5:53 AM,55.0,54.0,96,30.07,0.2,NNE,3.5,-,N/A,Fog,Fog,30,2013-02-06 11:53:00
6:53 AM,53.1,53.1,100,30.08,0.2,Calm,Calm,-,N/A,Fog,Fog,0,2013-02-06 12:53:00
7:17 AM,53.6,53.6,100,30.09,0.5,Calm,Calm,-,N/A,Fog,Fog,0,2013-02-06 13:17:00
7:45 AM,55.4,53.6,94,30.09,0.2,Calm,Calm,-,N/A,Fog,Fog,0,2013-02-06 13:45:00
7:53 AM,55.0,54.0,96,30.09,0.2,Calm,Calm,-,N/A,Fog,Fog,0,2013-02-06 13:53:00
8:29 AM,57.2,55.4,94,30.08,0.5,ENE,3.5,-,N/A,Fog,Fog,70,2013-02-06 14:29:00
8:53 AM,59.0,57.9,96,30.08,0.8,ENE,3.5,-,N/A,,Overcast,70,2013-02-06 14:53:00
9:53 AM,61.0,59.0,93,30.09,0.5,Calm,Calm,-,N/A,Fog,Fog,0,2013-02-06 15:53:00
9:57 AM,60.8,59.0,94,30.09,3.0,East,3.5,-,N/A,Fog,Fog,100,2013-02-06 15:57:00
10:06 AM,62.6,60.8,94,30.10,2.5,Calm,Calm,-,N/A,Fog,Fog,0,2013-02-06 16:06:00
10:29 AM,62.6,59.0,88,30.10,2.5,Variable,4.6,-,N/A,,Mostly Cloudy,0,2013-02-06 16:29:00
10:53 AM,64.0,59.0,84,30.11,2.5,Calm,Calm,-,N/A,,Haze,0,2013-02-06 16:53:00
11:00 AM,64.4,60.8,88,30.11,6.0,SSE,3.5,-,N/A,,Mostly Cloudy,160,2013-02-06 17:00:00
11:53 AM,66.0,59.0,78,30.08,9.0,East,3.5,-,0.01,Rain,Light Rain,80,2013-02-06 17:53:00
12:53 PM,66.0,59.0,78,30.02,9.0,East,9.2,-,0.00,,Mostly Cloudy,90,2013-02-06 18:53:00
1:02 PM,66.2,59.0,78,30.02,9.0,East,10.4,18.4,N/A,,Mostly Cloudy,100,2013-02-06 19:02:00
1:53 PM,66.0,57.9,75,30.00,7.0,East,6.9,-,N/A,,Partly Cloudy,90,2013-02-06 19:53:00
2:53 PM,66.0,57.9,75,30.00,9.0,SE,6.9,-,N/A,,Overcast,130,2013-02-06 20:53:00
3:53 PM,64.0,57.9,80,30.01,5.0,Calm,Calm,-,0.01,Rain,Light Rain,0,2013-02-06 21:53:00
4:53 PM,62.1,59.0,90,30.00,6.0,Calm,Calm,-,0.04,Rain,Light Rain,0,2013-02-06 22:53:00
5:09 PM,62.6,59.0,88,30.01,5.0,Calm,Calm,-,0.00,Rain,Light Rain,0,2013-02-06 23:09:00
5:53 PM,62.1,59.0,90,30.00,4.0,NNE,4.6,-,0.04,Rain,Rain,30,2013-02-06 23:53:00
6:36 PM,60.8,59.0,94,30.00,4.0,NE,8.1,-,0.06,Rain,Light Rain,40,2013-02-07 00:36:00
6:53 PM,61.0,57.9,90,30.01,5.0,NE,6.9,-,0.08,Rain,Light Rain,50,2013-02-07 00:53:00
7:53 PM,60.1,57.9,93,29.99,5.0,ENE,6.9,-,0.06,Rain,Light Rain,60,2013-02-07 01:53:00
8:53 PM,60.1,57.9,93,30.00,6.0,NE,9.2,-,0.01,,Overcast,50,2013-02-07 02:53:00
9:53 PM,60.1,57.0,90,29.99,9.0,ENE,8.1,-,N/A,,Overcast,60,2013-02-07 03:53:00
10:53 PM,60.1,57.0,90,29.97,5.0,NE,5.8,-,0.02,Rain,Rain,40,2013-02-07 04:53:00
11:08 PM,60.8,57.2,88,29.97,4.0,NE,9.2,-,0.05,Rain,Heavy Rain,40,2013-02-07 05:08:00
11:32 PM,59.0,57.2,94,29.96,3.0,NE,8.1,-,N/A,Rain,Heavy Rain,50,2013-02-07 05:32:00
11:53 PM,59.0,57.0,93,29.94,3.0,NNE,15.0,-,0.25,Rain,Heavy Rain,30,2013-02-07 05:53:00